Location: Staunton
(38.1490°N, 79.0720°W)
Time: 11:50:21
(UTC-04:00)

ISS - Pass Details

Date: 24 May 2020
Orbit: 417 x 420 km, 51.6° (Epoch: 26 May)

Event Time Altitude Azimuth Distance (km) Brightness Sun altitude
Rises 00:08:42 0° 318° (NW) 2,366 1.0 -29.1°
Reaches altitude 10° 00:11:18 10° 339° (NNW) 1,500 0.0 -29.2°
Enters shadow 00:12:38 16° 1° (N) 1,201 -0.7 -29.3°
